Tracking 21076 objects as of 7-Aug-2020
HD Live streaming from Space Station
objects crossing your sky now

ARIANE 44LP DEB

Track ARIANE 44LP DEB now!


NORAD ID: 33543
Int'l Code: 1988-109S
Perigee: 590.2 km
Apogee: 35,758.4 km
Inclination: 6.7 °
Period: 637.8 minutes
Semi major axis: 24545 km
RCS: 0.5686 m2 (medium)
Launch date: December 11, 1988
Source: France (FR)
Launch site: FRENCH GUIANA (FRGUI)

Note: This is SATELLITE DEBRIS
aabbcc
Your satellite tracking list
Your tracking list is empty




NASA's NSSDC Master Catalog

Two Line Element Set (TLE):
1 33543U 88109S   20216.47220278 -.00000145  00000-0 -79779-3 0  9991
2 33543   6.6837 148.4602 7163953 253.3955 330.3096  2.25761890147355
Source of the keplerian elements: AFSPC